Weather History for Philip, SD

Change the Weather History Date:

Sunday, January 22, 2012

  Actual Average Record
Temperature  
Mean Temperature 34 °F 22 °F  
Max Temperature 40 °F 35 °F 64 °F (1989)
Min Temperature 28 °F 10 °F -22 °F (2003)
Degree Days  
Heating Degree Days 31 43  
Month to date heating degree days 849 953  
Since 1 July heating degree days 3337 3888  
Cooling Degree Days 0 0  
Month to date cooling degree days 0 0  
Year to date cooling degree days 0 0  
Moisture  
Dew Point 30 °F    
Average Humidity 80    
Maximum Humidity 100    
Minimum Humidity 59    
Precipitation  
Precipitation 0.06 in 0.01 in 0.17 in (1952)
Month to date precipitation 0.15 0.22  
Year to date precipitation 0.15 0.22  
Sea Level Pressure  
Sea Level Pressure 29.56 in    
Wind  
Wind Speed 16 mph (NW)    
Max Wind Speed 35 mph    
Max Gust Speed 44 mph    
Visibility 8 miles    
Events Rain , Snow    
T = Trace of Precipitation, MM = Missing Value Source: NWS Daily Summary

Daily Weather History Graph

Daily Weather History Graph

Search for Another Location

Airport:

Trip Planner

Search our weather history database for the weather conditions in past years. The results will help you decide how hot, cold, wet, or windy it might be!

Date:

Astronomy

Jan. 22, 2012 Rise Set
Actual Time 7:13 AM MST 4:42 PM MST
Civil Twilight 6:42 AM MST 5:14 PM MST
Nautical Twilight 6:06 AM MST 5:49 PM MST
Astronomical Twilight 5:32 AM MST 6:23 PM MST
Moon 6:31 AM MST (1/22) 4:27 PM MST (1/22)
Length of Visible Light 10h 31m
Length of Day
9h 28m
Waning Crescent, 0% of the Moon is Illuminated
Jan 22
Waning Crescent
Jan 23
New
Jan 30
First Quarter
Feb 7
Full
Feb 14
Last Quarter

Hourly Weather History & Observations

Time (MST) Temp. Windchill Dew Point Humidity Pressure Visibility Wind Dir Wind Speed Gust Speed Precip Events Conditions
12:55 AM 36.0 °F 32.1 °F 28.9 °F 76% 29.24 in 10.0 mi SE 4.6 mph - N/A   Overcast
1:55 AM 36.0 °F 32.1 °F 30.0 °F 79% 29.26 in 10.0 mi North 4.6 mph - N/A   Overcast
2:55 AM 34.0 °F 29.8 °F 30.0 °F 85% 29.29 in 10.0 mi North 4.6 mph - N/A   Overcast
3:55 AM 32.0 °F 26.4 °F 28.9 °F 88% 29.29 in 10.0 mi North 5.8 mph - N/A   Mostly Cloudy
4:55 AM 30.0 °F 22.4 °F 26.1 °F 85% 29.33 in 10.0 mi NW 8.1 mph - N/A   Overcast
5:55 AM 28.9 °F 17.7 °F 24.1 °F 82% 29.40 in 10.0 mi WNW 15.0 mph - N/A   Overcast
6:55 AM 30.0 °F 18.7 °F 27.0 °F 88% 29.42 in 6.0 mi NNW 16.1 mph - 0.00 in   Overcast
7:24 AM 33.8 °F 21.3 °F 30.2 °F 87% 29.40 in 2.5 mi NNW 24.2 mph 34.5 mph 0.00 in Snow Light Snow
7:37 AM 33.8 °F 20.8 °F 30.2 °F 87% 29.42 in 3.0 mi NNW 26.5 mph 35.7 mph 0.00 in Snow Light Snow
7:55 AM 35.1 °F 22.7 °F 32.0 °F 89% 29.46 in 10.0 mi NNW 25.3 mph 33.4 mph 0.00 in Rain Light Rain
8:44 AM 33.8 °F 20.8 °F 33.8 °F 100% 29.48 in 3.0 mi NW 26.5 mph 33.4 mph 0.02 in Snow Light Snow
8:55 AM 34.0 °F 21.3 °F 34.0 °F 100% 29.52 in 5.0 mi NNW 25.3 mph 32.2 mph 0.02 in Snow Light Snow
9:47 AM 35.6 °F 22.7 °F 35.6 °F 100% 29.53 in 7.0 mi NNW 28.8 mph 42.6 mph 0.00 in Snow Light Snow
9:55 AM 35.1 °F 23.0 °F 34.0 °F 96% 29.57 in 6.0 mi NNW 24.2 mph 40.3 mph 0.00 in Snow Light Snow
10:32 AM 33.8 °F 21.9 °F 33.8 °F 100% 29.56 in 2.5 mi NNW 21.9 mph 32.2 mph 0.01 in Snow Light Snow
10:44 AM 33.8 °F 22.8 °F 33.8 °F 100% 29.56 in 1.5 mi NNW 18.4 mph 29.9 mph 0.01 in Snow Light Snow
10:55 AM 34.0 °F 22.4 °F 34.0 °F 100% 29.59 in 1.8 mi NW 20.7 mph 27.6 mph 0.03 in Snow Light Snow
11:05 AM 33.8 °F 22.8 °F 33.8 °F 100% 29.56 in 2.5 mi NW 18.4 mph 26.5 mph N/A Snow Light Snow
11:18 AM 33.8 °F 23.2 °F 33.8 °F 100% 29.56 in 4.0 mi NNW 17.3 mph 26.5 mph 0.01 in Snow Light Snow
11:43 AM 37.4 °F 29.3 °F 37.4 °F 100% 29.56 in 10.0 mi NW 12.7 mph 20.7 mph 0.01 in   Overcast
11:55 AM 37.0 °F 28.5 °F 37.0 °F 100% 29.59 in 10.0 mi WNW 13.8 mph - 0.01 in   Overcast
12:55 PM 39.0 °F 28.8 °F 37.0 °F 93% 29.61 in 10.0 mi NW 21.9 mph 28.8 mph N/A   Overcast
1:55 PM 39.0 °F 29.6 °F 28.9 °F 67% 29.64 in 10.0 mi NW 18.4 mph 36.8 mph N/A   Overcast
2:55 PM 39.0 °F 28.8 °F 27.0 °F 62% 29.66 in 10.0 mi NW 21.9 mph 33.4 mph N/A   Overcast
3:55 PM 39.0 °F 28.8 °F 26.1 °F 60% 29.69 in 10.0 mi NW 21.9 mph 28.8 mph N/A   Overcast
4:55 PM 37.9 °F 28.2 °F 26.1 °F 62% 29.72 in 10.0 mi NW 18.4 mph 26.5 mph N/A   Overcast
5:55 PM 37.0 °F 25.6 °F 25.0 °F 62% 29.75 in 10.0 mi NW 24.2 mph 32.2 mph N/A   Overcast
6:55 PM 36.0 °F 25.6 °F 25.0 °F 64% 29.77 in 10.0 mi NW 18.4 mph 28.8 mph N/A   Mostly Cloudy
7:55 PM 35.1 °F 24.8 °F 24.1 °F 64% 29.77 in 10.0 mi WNW 17.3 mph - N/A   Overcast
8:55 PM 33.1 °F 21.9 °F 25.0 °F 72% 29.80 in 10.0 mi NW 18.4 mph 23.0 mph N/A   Overcast
9:55 PM 33.1 °F 21.2 °F 24.1 °F 70% 29.80 in 10.0 mi NW 20.7 mph 27.6 mph N/A   Overcast
10:55 PM 32.0 °F 22.1 °F 24.1 °F 73% 29.81 in 10.0 mi NW 13.8 mph - N/A   Overcast
11:55 PM 28.9 °F 19.8 °F 23.0 °F 78% 29.82 in 10.0 mi WNW 10.4 mph - N/A   Mostly Cloudy